EW8748 Weather Reports


time (UTC)temp
C
wind
direction
speed
KPH
gust
KPH
rain 1hr
cm
rain 24hr
cm
rain mn
cm
humidity
%
barometer
mb
20260507115022 14 185 29.0 45.1 0.00 0.00 0.00 85 1009.8
20260507114514 14 120 22.5 38.6 0.00 0.00 0.00 85 1009.9
20260507114022 14 122 24.1 48.3 0.00 0.00 0.00 84 1009.9
20260507113023 14 95 20.9 33.8 0.00 0.00 0.00 84 1009.8
20260507110515 14 101 22.5 40.2 0.00 0.00 0.00 83 1010.1
20260507110015 14 110 24.1 51.5 0.00 0.00 0.00 83 1010.2
20260507105022 15 67 20.9 38.6 0.00 0.00 0.00 83 1010.3
20260507104514 15 80 22.5 41.8 0.00 0.00 0.00 82 1010.1
20260507103514 15 24 24.1 38.6 0.00 0.00 0.00 81 1010.3
20260507103027 15 91 24.1 45.1 0.00 0.00 0.00 81 1010.4
20260507102514 15 70 24.1 40.2 0.00 0.00 0.00 82 1010.5
20260507100514 15 105 25.7 40.2 0.00 0.00 0.00 80 1010.6
20260507100014 15 52 27.4 45.1 0.00 0.00 0.00 80 1010.6
20260507095021 15 106 29.0 46.7 0.00 0.00 0.00 79 1010.7
20260507093023 15 55 22.5 41.8 0.00 0.00 0.00 79 1010.8
20260507091513 15 76 25.7 38.6 0.00 0.00 0.00 80 1011.1
20260507091021 15 102 22.5 45.1 0.00 0.00 0.00 80 1011.0
20260507085022 15 83 25.7 41.8 0.00 0.00 0.00 81 1010.9
20260507083513 15 45 20.9 33.8 0.00 0.00 0.00 82 1011.1
20260507082515 15 95 24.1 48.3 0.00 0.00 0.00 80 1010.9
20260507081513 15 90 25.7 41.8 0.00 0.00 0.00 81 1010.7
20260507081021 15 95 25.7 41.8 0.00 0.00 0.00 81 1010.6
20260507080016 15 97 25.7 41.8 0.00 0.00 0.00 82 1010.5
20260507075022 15 117 20.9 46.7 0.00 0.00 0.00 83 1010.4
20260507074021 15 96 22.5 40.2 0.00 0.00 0.00 83 1010.5
20260507065514 13 49 20.9 41.8 0.00 0.00 0.00 88 1011.1
20260507064513 13 71 24.1 45.1 0.00 0.00 0.00 90 1011.1
20260507063513 13 108 22.5 33.8 0.00 0.00 0.00 92 1011.2
20260507063021 13 73 20.9 41.8 0.00 0.00 0.00 92 1011.3
20260507062513 13 108 22.5 33.8 0.00 0.00 0.00 92 1011.2
20260507060515 13 108 19.3 32.2 0.00 0.00 0.00 93 1010.9
20260507060014 13 97 17.7 41.8 0.00 0.00 0.00 93 1011.0
20260507055514 13 98 22.5 45.1 0.00 0.00 0.00 93 1010.9
20260507055021 13 83 20.9 33.8 0.00 0.00 0.00 94 1011.0
20260507054513 13 88 20.9 38.6 0.00 0.00 0.00 93 1011.3
20260507053021 13 97 17.7 35.4 0.00 0.00 0.00 93 1011.5
20260507052515 12 124 19.3 40.2 0.00 0.00 0.00 93 1011.4
20260507052021 12 81 16.1 37.0 0.00 0.00 0.00 93 1011.4
20260507050513 12 88 20.9 35.4 0.00 0.00 0.00 94 1011.2
20260507050014 12 146 20.9 32.2 0.00 0.00 0.00 94 1011.3
20260507045021 12 29 19.3 35.4 0.00 0.00 0.00 94 1011.4
20260507044514 12 86 19.3 32.2 0.00 0.00 0.00 94 1011.6
20260507043513 12 39 17.7 37.0 0.00 0.00 0.00 94 1011.3
20260507043021 12 120 20.9 32.2 0.00 0.00 0.00 93 1011.3
20260507042021 12 115 19.3 41.8 0.00 0.00 0.00 93 1011.3
20260507041513 12 91 17.7 33.8 0.00 0.00 0.00 93 1011.4
20260507034513 12 103 17.7 32.2 0.00 0.00 0.00 92 1011.5
20260507034022 12 122 16.1 29.0 0.00 0.00 0.00 92 1011.7
20260507033514 12 97 11.3 22.5 0.00 0.00 0.00 92 1011.8
20260507032513 12 85 19.3 32.2 0.00 0.00 0.00 92 1012.0
20260507032020 12 67 16.1 29.0 0.00 0.00 0.00 92 1012.0
20260507024513 12 35 14.5 24.1 0.00 0.00 0.00 92 1012.4
20260507023019 12 85 14.5 24.1 0.00 0.00 0.00 93 1012.4
20260507022020 12 108 9.7 22.5 0.00 0.00 0.00 93 1012.4
20260507020513 12 97 14.5 22.5 0.00 0.00 0.00 93 1012.2
20260507015513 12 126 11.3 22.5 0.00 0.00 0.00 93 1012.3
20260507013021 12 87 9.7 19.3 0.00 0.00 0.00 93 1012.2
20260507011513 12 73 11.3 24.1 0.00 0.00 0.00 93 1012.0
20260507011019 12 39 11.3 22.5 0.00 0.00 0.00 93 1012.0
20260507010513 12 79 11.3 22.5 0.00 0.00 0.00 93 1012.0
20260507010013 12 82 14.5 20.9 0.00 0.00 0.00 93 1012.1
20260507005513 12 92 9.7 22.5 0.00 0.00 0.00 93 1012.2
20260507004019 12 64 12.9 22.5 0.00 0.00 0.00 92 1012.3
20260507003512 12 66 11.3 22.5 0.00 0.00 0.00 92 1012.5
20260507003021 12 80 14.5 22.5 0.00 0.00 0.00 92 1012.4
20260507002513 12 112 11.3 24.1 0.00 0.00 0.00 92 1012.5
20260507001512 12 119 9.7 19.3 0.00 0.00 0.00 92 1012.8
20260507001020 12 73 9.7 19.3 0.00 0.00 0.00 92 1013.0
20260507000513 13 89 6.4 12.9 0.00 0.00 0.00 92 1013.1
20260506235513 13 79 8.0 20.9 0.00 0.00 0.00 92 1013.1
20260506235019 13 115 11.3 24.1 0.00 0.00 0.00 92 1013.1
20260506234019 13 92 9.7 19.3 0.00 0.00 0.00 92 1013.2
20260506225514 13 123 11.3 24.1 0.00 0.00 0.00 91 1013.9
20260506224513 13 79 11.3 20.9 0.00 0.00 0.00 91 1013.8
20260506224019 13 69 11.3 20.9 0.00 0.00 0.00 91 1013.7
20260506223513 13 110 11.3 24.1 0.00 0.00 0.00 91 1013.5
20260506220513 13 108 11.3 20.9 0.00 0.00 0.00 91 1013.6
20260506215512 13 80 11.3 22.5 0.00 0.00 0.00 91 1013.7
20260506214019 13 109 12.9 20.9 0.00 0.00 0.00 91 1014.0
20260506213512 13 114 9.7 19.3 0.00 0.00 0.00 91 1014.1
20260506213019 13 80 9.7 19.3 0.00 0.00 0.00 91 1014.0
20260506212019 13 70 11.3 19.3 0.00 0.00 0.00 91 1014.1
20260506211513 13 107 9.7 20.9 0.00 0.00 0.00 91 1014.2
20260506204512 13 105 11.3 20.9 0.00 0.00 0.00 91 1013.8
20260506202513 13 110 9.7 19.3 0.00 0.00 0.00 92 1013.8
20260506201512 13 110 11.3 19.3 0.00 0.00 0.00 92 1013.6
20260506200512 13 88 12.9 22.5 0.00 0.00 0.00 92 1013.3
20260506200012 13 66 16.1 25.7 0.00 0.00 0.00 92 1013.3
20260506195513 13 106 9.7 19.3 0.00 0.00 0.00 92 1013.2
20260506195020 13 37 9.7 20.9 0.00 0.00 0.00 93 1013.1
20260506194019 13 101 16.1 32.2 0.00 0.00 0.00 92 1013.0
20260506193020 13 97 14.5 27.4 0.00 0.00 0.00 92 1012.9
20260506192021 13 55 16.1 27.4 0.00 0.00 0.00 92 1012.3
20260506191514 13 57 17.7 32.2 0.00 0.00 0.00 92 1012.3
20260506191019 13 95 19.3 35.4 0.00 0.00 0.00 92 1012.1
20260506185513 13 73 19.3 29.0 0.00 0.00 0.00 91 1011.5
20260506185019 14 72 16.1 24.1 0.00 0.00 0.00 91 1012.0
20260506184512 14 85 19.3 29.0 0.00 0.00 0.00 90 1012.2
20260506184019 14 80 17.7 27.4 0.00 0.00 0.00 90 1012.6
20260506183514 14 56 16.1 27.4 0.00 0.00 0.00 89 1012.8
20260506183020 14 56 14.5 22.5 0.00 0.00 0.00 89 1012.9
20260506181512 15 121 12.9 25.7 0.00 0.00 0.00 87 1013.2
20260506181020 15 55 11.3 24.1 0.00 0.00 0.00 87 1013.2
20260506175020 15 86 12.9 25.7 0.00 0.00 0.00 83 1013.7
20260506173020 16 37 11.3 20.9 0.00 0.00 0.00 78 1013.6
20260506172512 16 31 9.7 14.5 0.00 0.00 0.00 78 1013.7
20260506172020 16 72 11.3 19.3 0.00 0.00 0.00 77 1013.7
20260506171512 16 87 11.3 19.3 0.00 0.00 0.00 76 1013.7
20260506170512 16 98 11.3 19.3 0.00 0.00 0.00 71 1013.6
20260506170012 16 78 9.7 16.1 0.00 0.00 0.00 70 1013.5
20260506164512 16 59 11.3 19.3 0.00 0.00 0.00 65 1013.2
20260506164019 17 84 11.3 22.5 0.00 0.00 0.00 62 1013.3
20260506163512 17 45 11.3 19.3 0.00 0.00 0.00 58 1013.3
20260506162513 17 121 11.3 22.5 0.00 0.00 0.00 58 1013.3
20260506162020 17 66 14.5 25.7 0.00 0.00 0.00 56 1013.3
20260506161513 17 26 12.9 20.9 0.00 0.00 0.00 55 1013.2
20260506161020 18 56 12.9 24.1 0.00 0.00 0.00 55 1013.3
20260506160512 18 94 11.3 19.3 0.00 0.00 0.00 54 1013.4
20260506154020 18 73 11.3 19.3 0.00 0.00 0.00 52 1013.6
20260506152512 18 102 11.3 20.9 0.00 0.00 0.00 53 1013.6
20260506152020 19 108 9.7 19.3 0.00 0.00 0.00 52 1013.5
20260506151020 19 134 11.3 25.7 0.00 0.00 0.00 54 1013.6
20260506150512 19 87 11.3 22.5 0.00 0.00 0.00 55 1013.6
20260506145512 20 64 11.3 19.3 0.00 0.00 0.00 55 1013.7
20260506145020 20 102 11.3 19.3 0.00 0.00 0.00 56 1013.7
20260506144512 20 92 11.3 19.3 0.00 0.00 0.00 57 1013.6
20260506144020 20 76 11.3 22.5 0.00 0.00 0.00 57 1013.8
20260506142513 20 86 14.5 24.1 0.00 0.00 0.00 62 1013.8
20260506142019 20 93 11.3 19.3 0.00 0.00 0.00 62 1013.8
20260506140514 20 93 11.3 20.9 0.00 0.00 0.00 62 1013.8
20260506135020 20 39 11.3 16.1 0.00 0.00 0.00 62 1013.9
20260506134512 20 66 6.4 19.3 0.00 0.00 0.00 61 1013.9
20260506131020 20 58 8.0 19.3 0.00 0.00 0.00 58 1014.1
20260506125512 21 67 14.5 22.5 0.00 0.00 0.00 53 1013.9
20260506125021 21 79 11.3 19.3 0.00 0.00 0.00 55 1013.9
20260506124512 21 77 9.7 16.1 0.00 0.00 0.00 53 1013.9